Time,TemperatureF,DewpointF,PressureIn,WindDirection,WindDirectionDegrees,WindSpeedMPH,WindSpeedGustMPH,Humidity,HourlyPrecipIn,Conditions,Clouds,dailyrainin,SoftwareType,DateUTC
2013-07-02 00:01:00,67.0,50.0,30.20,East,85,1.0,1.0,55,0.00,,,0.00,,2013-07-02 05:01:00,
2013-07-02 00:11:00,67.0,50.0,30.20,NE,45,2.0,6.0,54,0.00,,,0.00,,2013-07-02 05:11:00,
2013-07-02 00:22:00,67.0,50.0,30.20,NE,48,1.0,3.0,54,0.00,,,0.00,,2013-07-02 05:22:00,
2013-07-02 00:32:00,67.0,50.0,30.20,ENE,68,1.0,2.0,55,0.00,,,0.00,,2013-07-02 05:32:00,
2013-07-02 00:43:00,66.0,49.0,30.20,ENE,68,0.0,1.0,55,0.00,,,0.00,,2013-07-02 05:43:00,
2013-07-02 00:53:00,66.0,50.0,30.20,NNE,22,0.0,0.0,56,0.00,,,0.00,,2013-07-02 05:53:00,
2013-07-02 01:01:00,65.0,50.0,30.20,ENE,68,0.0,0.0,58,0.00,,,0.00,,2013-07-02 06:01:00,
2013-07-02 01:11:00,64.0,49.0,30.20,ENE,68,0.0,0.0,59,0.00,,,0.00,,2013-07-02 06:11:00,
2013-07-02 01:23:00,64.0,50.0,30.19,NE,45,0.0,0.0,61,0.00,,,0.00,,2013-07-02 06:23:00,
2013-07-02 01:34:00,64.0,51.0,30.19,ENE,67,0.0,0.0,62,0.00,,,0.00,,2013-07-02 06:34:00,
2013-07-02 01:43:00,64.0,51.0,30.19,North,0,0.0,0.0,62,0.00,,,0.00,,2013-07-02 06:43:00,
2013-07-02 01:53:00,64.0,51.0,30.19,NNE,22,0.0,0.0,63,0.00,,,0.00,,2013-07-02 06:53:00,
2013-07-02 02:01:00,63.0,50.0,30.19,ENE,57,0.0,0.0,63,0.00,,,0.00,,2013-07-02 07:01:00,
2013-07-02 02:11:00,64.0,52.0,30.19,NE,45,0.0,0.0,64,0.00,,,0.00,,2013-07-02 07:11:00,
2013-07-02 02:22:00,63.0,51.0,30.19,NE,45,0.0,0.0,64,0.00,,,0.00,,2013-07-02 07:22:00,
2013-07-02 02:34:00,63.0,51.0,30.19,NW,304,0.0,0.0,64,0.00,,,0.00,,2013-07-02 07:34:00,
2013-07-02 02:44:00,63.0,51.0,30.19,North,359,1.0,1.0,65,0.00,,,0.00,,2013-07-02 07:44:00,
2013-07-02 02:53:00,63.0,51.0,30.19,WNW,292,0.0,0.0,66,0.00,,,0.00,,2013-07-02 07:53:00,
2013-07-02 03:02:00,63.0,52.0,30.19,NNE,22,0.0,0.0,67,0.00,,,0.00,,2013-07-02 08:02:00,
2013-07-02 03:12:00,63.0,52.0,30.18,North,0,0.0,0.0,68,0.00,,,0.00,,2013-07-02 08:12:00,
2013-07-02 03:22:00,63.0,52.0,30.18,NNE,22,0.0,0.0,68,0.00,,,0.00,,2013-07-02 08:22:00,
2013-07-02 03:33:00,62.0,51.0,30.18,NE,45,0.0,0.0,68,0.00,,,0.00,,2013-07-02 08:33:00,
2013-07-02 03:44:00,62.0,52.0,30.18,NE,49,0.0,0.0,69,0.00,,,0.00,,2013-07-02 08:44:00,
2013-07-02 03:53:00,61.0,52.0,30.18,NNE,22,0.0,0.0,71,0.00,,,0.00,,2013-07-02 08:53:00,
2013-07-02 04:02:00,61.0,52.0,30.18,NW,319,0.0,0.0,72,0.00,,,0.00,,2013-07-02 09:02:00,
2013-07-02 04:11:00,61.0,52.0,30.18,North,353,0.0,0.0,73,0.00,,,0.00,,2013-07-02 09:11:00,
2013-07-02 04:23:00,61.0,52.0,30.18,NNE,22,1.0,1.0,73,0.00,,,0.00,,2013-07-02 09:23:00,
2013-07-02 04:33:00,61.0,52.0,30.18,NE,45,0.0,0.0,72,0.00,,,0.00,,2013-07-02 09:33:00,
2013-07-02 04:43:00,61.0,52.0,30.18,NNE,22,0.0,0.0,72,0.00,,,0.00,,2013-07-02 09:43:00,
2013-07-02 04:52:00,62.0,52.0,30.18,ENE,68,0.0,0.0,71,0.00,,,0.00,,2013-07-02 09:52:00,
2013-07-02 05:01:00,61.0,52.0,30.18,NE,45,0.0,0.0,71,0.00,,,0.00,,2013-07-02 10:01:00,
2013-07-02 05:11:00,61.0,51.0,30.18,NNE,14,0.0,0.0,70,0.00,,,0.00,,2013-07-02 10:11:00,
2013-07-02 05:22:00,61.0,51.0,30.18,NE,45,0.0,0.0,70,0.00,,,0.00,,2013-07-02 10:22:00,
2013-07-02 05:33:00,61.0,51.0,30.19,NNE,22,0.0,0.0,70,0.00,,,0.00,,2013-07-02 10:33:00,
2013-07-02 05:44:00,61.0,51.0,30.19,NE,45,0.0,0.0,70,0.00,,,0.00,,2013-07-02 10:44:00,
2013-07-02 05:52:00,61.0,52.0,30.18,NNE,28,0.0,0.0,71,0.00,,,0.00,,2013-07-02 10:52:00,
2013-07-02 06:01:00,61.0,51.0,30.19,ENE,68,0.0,0.0,70,0.00,,,0.00,,2013-07-02 11:01:00,
2013-07-02 06:11:00,61.0,51.0,30.19,WSW,255,0.0,0.0,70,0.00,,,0.00,,2013-07-02 11:11:00,
2013-07-02 06:22:00,61.0,51.0,30.18,NE,49,0.0,0.0,70,0.00,,,0.00,,2013-07-02 11:22:00,
2013-07-02 06:33:00,62.0,52.0,30.19,NNW,338,0.0,1.0,69,0.00,,,0.00,,2013-07-02 11:33:00,
2013-07-02 06:42:00,62.0,51.0,30.19,NE,45,0.0,0.0,68,0.00,,,0.00,,2013-07-02 11:42:00,
2013-07-02 06:52:00,62.0,51.0,30.20,ENE,68,0.0,0.0,68,0.00,,,0.00,,2013-07-02 11:52:00,
2013-07-02 07:01:00,63.0,52.0,30.19,ENE,68,0.0,0.0,68,0.00,,,0.00,,2013-07-02 12:01:00,
2013-07-02 07:11:00,63.0,52.0,30.20,ENE,68,0.0,0.0,68,0.00,,,0.00,,2013-07-02 12:11:00,
2013-07-02 07:23:00,63.0,53.0,30.20,ENE,68,0.0,0.0,69,0.00,,,0.00,,2013-07-02 12:23:00,
2013-07-02 07:33:00,63.0,53.0,30.21,ENE,68,0.0,0.0,69,0.00,,,0.00,,2013-07-02 12:33:00,
2013-07-02 07:43:00,62.0,52.0,30.21,NE,45,0.0,0.0,70,0.00,,,0.00,,2013-07-02 12:43:00,
2013-07-02 07:52:00,63.0,53.0,30.21,ENE,68,2.0,2.0,71,0.00,,,0.00,,2013-07-02 12:52:00,
2013-07-02 08:01:00,63.0,54.0,30.21,ENE,68,0.0,0.0,72,0.00,,,0.00,,2013-07-02 13:01:00,
2013-07-02 08:11:00,63.0,54.0,30.21,NE,55,0.0,0.0,72,0.00,,,0.00,,2013-07-02 13:11:00,
2013-07-02 08:22:00,63.0,54.0,30.21,ENE,68,0.0,0.0,73,0.00,,,0.00,,2013-07-02 13:22:00,
2013-07-02 08:34:00,63.0,54.0,30.22,NE,45,0.0,1.0,73,0.00,,,0.00,,2013-07-02 13:34:00,
2013-07-02 08:43:00,63.0,55.0,30.22,ENE,68,1.0,2.0,76,0.00,,,0.00,,2013-07-02 13:43:00,
2013-07-02 08:52:00,62.0,55.0,30.22,ENE,68,0.0,1.0,78,0.00,,,0.00,,2013-07-02 13:52:00,
2013-07-02 09:02:00,62.0,55.0,30.22,ENE,66,0.0,1.0,79,0.00,,,0.00,,2013-07-02 14:02:00,
2013-07-02 09:11:00,62.0,56.0,30.22,NE,45,0.0,0.0,80,0.00,,,0.00,,2013-07-02 14:11:00,
2013-07-02 09:22:00,63.0,57.0,30.22,East,89,0.0,1.0,80,0.00,,,0.00,,2013-07-02 14:22:00,
2013-07-02 09:33:00,62.0,56.0,30.22,NE,42,0.0,0.0,81,0.00,,,0.00,,2013-07-02 14:33:00,
2013-07-02 09:43:00,62.0,56.0,30.22,NE,45,0.0,0.0,81,0.00,,,0.00,,2013-07-02 14:43:00,
2013-07-02 09:53:00,62.0,57.0,30.22,ENE,68,0.0,0.0,83,0.02,,,0.02,,2013-07-02 14:53:00,
2013-07-02 10:02:00,62.0,57.0,30.22,NNE,15,0.0,0.0,84,0.04,,,0.04,,2013-07-02 15:02:00,
2013-07-02 10:11:00,62.0,57.0,30.22,NE,45,0.0,0.0,84,0.04,,,0.04,,2013-07-02 15:11:00,
2013-07-02 10:22:00,62.0,57.0,30.22,North,0,0.0,0.0,85,0.04,,,0.04,,2013-07-02 15:22:00,
2013-07-02 10:33:00,63.0,58.0,30.22,NNE,29,0.0,0.0,85,0.06,,,0.06,,2013-07-02 15:33:00,
2013-07-02 10:44:00,63.0,58.0,30.22,NNE,29,0.0,0.0,85,0.06,,,0.06,,2013-07-02 15:44:00,
2013-07-02 10:53:00,62.0,58.0,30.22,North,0,0.0,0.0,86,0.04,,,0.06,,2013-07-02 15:53:00,
2013-07-02 11:01:00,63.0,59.0,30.22,NE,37,0.0,1.0,86,0.02,,,0.06,,2013-07-02 16:01:00,
2013-07-02 11:12:00,63.0,59.0,30.22,North,0,0.0,1.0,86,0.02,,,0.06,,2013-07-02 16:12:00,
2013-07-02 11:22:00,64.0,59.0,30.22,WNW,292,0.0,1.0,85,0.02,,,0.06,,2013-07-02 16:22:00,
2013-07-02 11:33:00,64.0,59.0,30.22,East,87,0.0,0.0,84,0.00,,,0.06,,2013-07-02 16:33:00,
2013-07-02 11:43:00,64.0,59.0,30.22,NNW,341,0.0,1.0,83,0.00,,,0.06,,2013-07-02 16:43:00,
2013-07-02 11:52:00,64.0,59.0,30.22,NW,315,0.0,0.0,83,0.00,,,0.06,,2013-07-02 16:52:00,
2013-07-02 12:02:00,64.0,58.0,30.22,NNW,338,0.0,1.0,82,0.00,,,0.06,,2013-07-02 17:02:00,
2013-07-02 12:11:00,65.0,59.0,30.22,NNW,338,0.0,0.0,82,0.00,,,0.06,,2013-07-02 17:11:00,
2013-07-02 12:33:00,64.0,58.0,30.22,WNW,292,1.0,1.0,81,0.00,,,0.06,,2013-07-02 17:33:00,
2013-07-02 12:43:00,63.0,57.0,30.22,NNE,17,0.0,1.0,82,0.00,,,0.06,,2013-07-02 17:43:00,
2013-07-02 12:53:00,63.0,57.0,30.22,WSW,248,0.0,1.0,82,0.00,,,0.06,,2013-07-02 17:53:00,
2013-07-02 13:02:00,63.0,57.0,30.22,East,90,0.0,1.0,82,0.00,,,0.06,,2013-07-02 18:02:00,
2013-07-02 13:12:00,64.0,58.0,30.22,North,4,1.0,2.0,82,0.00,,,0.06,,2013-07-02 18:12:00,
2013-07-02 13:23:00,63.0,57.0,30.22,WNW,293,0.0,2.0,82,0.00,,,0.06,,2013-07-02 18:23:00,
2013-07-02 13:34:00,63.0,57.0,30.21,NNW,338,2.0,3.0,82,0.00,,,0.06,,2013-07-02 18:34:00,
2013-07-02 13:43:00,62.0,56.0,30.22,WNW,289,0.0,1.0,82,0.00,,,0.06,,2013-07-02 18:43:00,
2013-07-02 13:53:00,63.0,58.0,30.21,NNW,348,0.0,0.0,83,0.00,,,0.06,,2013-07-02 18:53:00,
2013-07-02 14:01:00,63.0,58.0,30.22,NNW,338,0.0,0.0,83,0.00,,,0.06,,2013-07-02 19:01:00,
2013-07-02 14:12:00,63.0,58.0,30.22,West,267,1.0,1.0,84,0.00,,,0.06,,2013-07-02 19:12:00,
2013-07-02 14:22:00,62.0,57.0,30.21,NNW,337,1.0,1.0,84,0.00,,,0.06,,2013-07-02 19:22:00,
2013-07-02 14:34:00,62.0,57.0,30.21,SE,135,0.0,0.0,84,0.02,,,0.08,,2013-07-02 19:34:00,
2013-07-02 14:43:00,63.0,58.0,30.21,North,0,0.0,2.0,85,0.02,,,0.08,,2013-07-02 19:43:00,
2013-07-02 14:53:00,63.0,58.0,30.21,NW,315,0.0,1.0,85,0.02,,,0.08,,2013-07-02 19:53:00,
2013-07-02 15:02:00,64.0,59.0,30.21,ENE,68,0.0,0.0,84,0.02,,,0.08,,2013-07-02 20:02:00,
2013-07-02 15:11:00,63.0,58.0,30.22,East,90,2.0,5.0,83,0.02,,,0.08,,2013-07-02 20:11:00,
2013-07-02 15:22:00,63.0,58.0,30.21,North,351,1.0,5.0,83,0.02,,,0.08,,2013-07-02 20:22:00,
2013-07-02 15:33:00,62.0,57.0,30.22,WSW,248,0.0,1.0,84,0.00,,,0.08,,2013-07-02 20:33:00,
2013-07-02 15:43:00,62.0,57.0,30.21,NNW,338,0.0,0.0,85,0.00,,,0.08,,2013-07-02 20:43:00,
2013-07-02 15:52:00,62.0,58.0,30.21,ENE,64,0.0,1.0,86,0.00,,,0.08,,2013-07-02 20:52:00,
2013-07-02 16:02:00,62.0,58.0,30.21,NW,315,0.0,0.0,86,0.00,,,0.08,,2013-07-02 21:02:00,
2013-07-02 16:11:00,62.0,58.0,30.21,NNE,22,0.0,0.0,87,0.00,,,0.08,,2013-07-02 21:11:00,
2013-07-02 16:22:00,62.0,58.0,30.20,NNW,344,0.0,1.0,87,0.00,,,0.08,,2013-07-02 21:22:00,
2013-07-02 16:33:00,62.0,58.0,30.20,NNW,338,0.0,0.0,88,0.00,,,0.08,,2013-07-02 21:33:00,
2013-07-02 16:44:00,62.0,58.0,30.20,NNW,338,0.0,0.0,88,0.00,,,0.08,,2013-07-02 21:44:00,
2013-07-02 16:52:00,63.0,60.0,30.20,North,355,0.0,0.0,89,0.02,,,0.10,,2013-07-02 21:52:00,
2013-07-02 17:01:00,64.0,60.0,30.20,North,352,1.0,1.0,88,0.02,,,0.10,,2013-07-02 22:01:00,
2013-07-02 17:11:00,64.0,60.0,30.20,NNW,338,1.0,2.0,86,0.02,,,0.10,,2013-07-02 22:11:00,
2013-07-02 17:22:00,64.0,59.0,30.20,NW,315,0.0,0.0,85,0.02,,,0.10,,2013-07-02 22:22:00,
2013-07-02 17:34:00,64.0,59.0,30.20,NE,40,0.0,1.0,85,0.02,,,0.10,,2013-07-02 22:34:00,
2013-07-02 17:43:00,65.0,60.0,30.21,North,0,1.0,1.0,85,0.02,,,0.10,,2013-07-02 22:43:00,
2013-07-02 17:53:00,64.0,59.0,30.20,NE,45,1.0,1.0,84,0.00,,,0.10,,2013-07-02 22:53:00,
2013-07-02 18:01:00,64.0,59.0,30.20,East,84,0.0,0.0,84,0.00,,,0.10,,2013-07-02 23:01:00,
2013-07-02 18:11:00,64.0,59.0,30.20,NE,45,0.0,0.0,85,0.00,,,0.10,,2013-07-02 23:11:00,
2013-07-02 18:22:00,64.0,59.0,30.20,East,90,1.0,6.0,85,0.00,,,0.10,,2013-07-02 23:22:00,
2013-07-02 18:33:00,63.0,59.0,30.20,WNW,292,0.0,6.0,86,0.00,,,0.10,,2013-07-02 23:33:00,
2013-07-02 18:44:00,63.0,59.0,30.20,NNW,338,1.0,6.0,87,0.00,,,0.10,,2013-07-02 23:44:00,
2013-07-02 18:52:00,63.0,59.0,30.19,NE,45,0.0,1.0,87,0.00,,,0.10,,2013-07-02 23:52:00,
2013-07-02 19:01:00,63.0,59.0,30.19,North,8,0.0,1.0,87,0.00,,,0.10,,2013-07-03 00:01:00,
2013-07-02 19:11:00,63.0,59.0,30.20,NNW,329,0.0,1.0,88,0.00,,,0.10,,2013-07-03 00:11:00,
2013-07-02 19:22:00,63.0,59.0,30.20,NE,45,0.0,0.0,88,0.00,,,0.10,,2013-07-03 00:22:00,
2013-07-02 19:33:00,62.0,59.0,30.21,NW,315,0.0,1.0,89,0.00,,,0.10,,2013-07-03 00:33:00,
2013-07-02 19:44:00,62.0,59.0,30.21,SW,225,0.0,1.0,89,0.00,,,0.10,,2013-07-03 00:44:00,
2013-07-02 19:52:00,62.0,59.0,30.21,NNW,338,0.0,1.0,89,0.00,,,0.10,,2013-07-03 00:52:00,
2013-07-02 20:01:00,62.0,59.0,30.21,NNW,338,0.0,1.0,89,0.00,,,0.10,,2013-07-03 01:01:00,
2013-07-02 20:11:00,62.0,59.0,30.20,North,357,1.0,2.0,90,0.00,,,0.10,,2013-07-03 01:11:00,
2013-07-02 20:22:00,62.0,59.0,30.19,WNW,292,0.0,0.0,90,0.00,,,0.10,,2013-07-03 01:22:00,
2013-07-02 20:33:00,62.0,59.0,30.19,WNW,292,0.0,0.0,90,0.00,,,0.10,,2013-07-03 01:33:00,
2013-07-02 20:42:00,62.0,59.0,30.20,ESE,112,0.0,3.0,90,0.00,,,0.10,,2013-07-03 01:42:00,
2013-07-02 21:04:00,62.0,59.0,30.19,NW,315,0.0,0.0,91,0.00,,,0.10,,2013-07-03 02:04:00,
2013-07-02 21:14:00,62.0,59.0,30.19,NW,315,0.0,0.0,91,0.00,,,0.10,,2013-07-03 02:14:00,
2013-07-02 21:39:00,62.0,60.0,30.21,NE,45,0.0,1.0,92,0.00,,,0.10,,2013-07-03 02:39:00,
2013-07-02 21:44:00,62.0,60.0,30.21,NNE,24,0.0,0.0,92,0.00,,,0.10,,2013-07-03 02:44:00,
2013-07-02 21:59:00,62.0,60.0,30.22,North,0,0.0,0.0,92,0.00,,,0.10,,2013-07-03 02:59:00,
2013-07-02 22:04:00,62.0,60.0,30.22,North,0,0.0,1.0,92,0.00,,,0.10,,2013-07-03 03:04:00,
2013-07-02 22:13:00,62.0,60.0,30.21,North,0,0.0,0.0,92,0.00,,,0.10,,2013-07-03 03:13:00,
2013-07-02 22:25:00,62.0,60.0,30.22,North,351,0.0,1.0,92,0.00,,,0.10,,2013-07-03 03:25:00,
2013-07-02 22:35:00,62.0,60.0,30.21,NW,315,0.0,1.0,92,0.00,,,0.10,,2013-07-03 03:35:00,
2013-07-02 23:01:00,62.0,59.0,30.20,North,0,1.0,1.0,91,0.00,,,0.10,,2013-07-03 04:01:00,
2013-07-02 23:11:00,61.0,59.0,30.20,NNW,338,0.0,1.0,92,0.00,,,0.10,,2013-07-03 04:11:00,
2013-07-02 23:22:00,61.0,59.0,30.20,NW,323,0.0,1.0,92,0.00,,,0.10,,2013-07-03 04:22:00,
2013-07-02 23:33:00,61.0,59.0,30.20,North,0,0.0,0.0,92,0.00,,,0.10,,2013-07-03 04:33:00,
2013-07-02 23:43:00,61.0,59.0,30.21,NNW,338,0.0,0.0,92,0.00,,,0.10,,2013-07-03 04:43:00,
2013-07-02 23:52:00,61.0,59.0,30.21,North,0,0.0,0.0,93,0.00,,,0.10,,2013-07-03 04:52:00,